TEVEL2-9

Last updated on Sun Aug 09 2026 00:03:16 GMT+0000 (Coordinated Universal Time)

1 63237U 25052AD 26220.64760573 .00009146 00000+0 28531-3 0 9996 2 63237 97.3864 115.9086 0004464 336.7241 23.3799 15.33439282 78068
UTC large
Height (km)
Speed (km/s)
/
Latitude / Longitude
Inclination (degrees)
Orbital Period (minutes)
Azimuth
Elevation
Range (km)
Doppler Factor

Next 0 passes for location: London (51.5072 / 0.1276)

No passes found over London.
TEVEL2-9